Price, UT

3:18 PM MST on November 19, 2017 (GMT -0700)
Carbon County

Weather History for KPUC - February, 2014

Change the Weather History Date:

Friday, February 28, 2014

  Actual Average Record
Temperature  
Mean Temperature 36 °F -  
Max Temperature 44 °F 38 °F 64 °F (1986)
Min Temperature 28 °F 19 °F 6 °F (1971)
Degree Days  
Heating Degree Days 29    
Moisture  
Dew Point 31 °F    
Average Humidity 79    
Maximum Humidity 96    
Minimum Humidity 53    
Precipitation  
Precipitation 0.16 in - - ()
Sea Level Pressure  
Sea Level Pressure 29.82 in    
Wind  
Wind Speed 7 mph (ENE)    
Max Wind Speed 14 mph    
Max Gust Speed 20 mph    
Visibility 8 miles    
Events Rain , Snow    
Averages and records for this station are not official NWS values.
T = Trace of Precipitation, MM = Missing Value Source: NWS Daily Summary

Daily Weather History Graph

Daily Weather History Graph

Search for Another Location

Airport or City:

Trip Planner

Search our weather history database for the weather conditions in past years. The results will help you decide how hot, cold, wet, or windy it might be!

Date:

Astronomy

Feb. 28, 2014 Rise Set
Actual Time 6:57 AM MST 6:14 PM MST
Civil Twilight 6:30 AM MST 6:41 PM MST
Nautical Twilight 5:59 AM MST 7:12 PM MST
Astronomical Twilight 5:28 AM MST 7:43 PM MST
Moon 6:14 AM MST (2/28) 5:55 PM MST (2/28)
Length of Visible Light 12h 10m
Length of Day
11h 16m
Waning Crescent, 0% of the Moon is Illuminated
Feb 28
Waning Crescent
Mar 1
New
Mar 8
First Quarter
Mar 16
Full
Mar 23
Last Quarter

Hourly Weather History & Observations

Time (MST) Temp. Windchill Dew Point Humidity Pressure Visibility Wind Dir Wind Speed Gust Speed Precip Events Conditions
12:53 AM 34.0 °F 26.0 °F 28.9 °F 82% 29.81 in 10.0 mi NE 10.4 mph - N/A   Clear
1:53 AM 34.0 °F 28.8 °F 28.0 °F 79% 29.83 in 10.0 mi NE 5.8 mph - N/A   Clear
2:53 AM 30.9 °F 27.5 °F 27.0 °F 85% 29.88 in 10.0 mi North 3.5 mph - N/A   Clear
3:53 AM 30.0 °F 24.1 °F 26.1 °F 85% 29.87 in 10.0 mi North 5.8 mph - N/A   Clear
4:53 AM 30.0 °F 22.4 °F 26.1 °F 85% 29.89 in 10.0 mi NNE 8.1 mph - N/A   Clear
5:53 AM 30.0 °F 22.4 °F 26.1 °F 85% 29.88 in 10.0 mi NE 8.1 mph - N/A   Partly Cloudy
6:53 AM 28.9 °F 21.9 °F 25.0 °F 85% 29.91 in 10.0 mi NNW 6.9 mph - N/A   Overcast
7:53 AM 34.0 °F 29.8 °F 28.0 °F 79% 29.90 in 10.0 mi ENE 4.6 mph - N/A   Partly Cloudy
8:53 AM 39.0 °F 35.7 °F 28.0 °F 65% 29.91 in 10.0 mi East 4.6 mph - N/A   Mostly Cloudy
9:53 AM 39.0 °F 34.0 °F 28.9 °F 67% 29.89 in 10.0 mi ESE 6.9 mph - N/A   Clear
10:53 AM 41.0 °F 35.8 °F 30.0 °F 65% 29.89 in 10.0 mi SE 8.1 mph - N/A   Clear
11:53 AM 43.0 °F 39.5 °F 30.0 °F 60% 29.88 in 10.0 mi ESE 5.8 mph - N/A   Mostly Cloudy
12:53 PM 43.0 °F 40.3 °F 28.9 °F 58% 29.88 in 10.0 mi ESE 4.6 mph - N/A   Mostly Cloudy
1:53 PM 44.1 °F 41.5 °F 28.0 °F 53% 29.84 in 10.0 mi ESE 4.6 mph - N/A   Overcast
2:53 PM 43.0 °F 36.0 °F 30.0 °F 60% 29.86 in 10.0 mi SSW 13.8 mph 19.6 mph N/A   Overcast
3:30 PM 39.9 °F 32.1 °F 34.0 °F 79% 29.82 in 10.0 mi South 13.8 mph - 0.00 in Rain Light Rain
3:53 PM 39.0 °F 34.0 °F 34.0 °F 82% 29.87 in 10.0 mi South 6.9 mph - 0.00 in   Overcast
4:53 PM 39.0 °F 33.4 °F 34.0 °F 82% 29.87 in 10.0 mi East 8.1 mph - 0.00 in   Overcast
5:06 PM 39.0 °F 31.8 °F 34.0 °F 82% 29.81 in 8.0 mi East 11.5 mph - 0.01 in Rain Light Rain
5:24 PM 37.9 °F 31.5 °F 34.0 °F 86% 29.80 in 10.0 mi ENE 9.2 mph - 0.01 in   Overcast
5:53 PM 39.0 °F 33.4 °F 34.0 °F 82% 29.85 in 10.0 mi NNE 8.1 mph - 0.01 in   Overcast
6:53 PM 39.0 °F 34.8 °F 33.1 °F 79% 29.83 in 10.0 mi NE 5.8 mph - N/A   Overcast
7:53 PM 39.0 °F 35.7 °F 33.1 °F 79% 29.79 in 10.0 mi North 4.6 mph - N/A   Overcast
8:53 PM 39.9 °F 35.1 °F 30.9 °F 70% 29.75 in 10.0 mi East 6.9 mph - N/A   Overcast
9:01 PM 39.9 °F 35.1 °F 30.9 °F 70% 29.73 in 10.0 mi ESE 6.9 mph - N/A   Overcast
9:53 PM 39.0 °F - 33.1 °F 79% 29.75 in 9.0 mi Calm Calm - 0.01 in Rain Light Rain
10:18 PM 37.0 °F 32.4 °F 32.0 °F 82% 29.71 in 6.0 mi East 5.8 mph - 0.03 in Rain Rain
10:42 PM 35.1 °F 32.2 °F 32.0 °F 89% 29.71 in 3.0 mi ESE 3.5 mph - 0.05 in Snow Light Snow
10:51 PM 35.6 °F - 32.0 °F 87% 29.72 in 2.0 mi Calm Calm - 0.07 in Snow Light Snow
10:53 PM 35.1 °F - 32.0 °F 89% 29.75 in 1.8 mi Calm Calm - 0.07 in Snow Light Snow
11:04 PM 34.0 °F 29.8 °F 30.9 °F 89% 29.72 in 1.0 mi NNE 4.6 mph - 0.04 in Snow Light Snow
11:14 PM 33.1 °F 27.7 °F 32.0 °F 96% 29.71 in 1.8 mi NE 5.8 mph - 0.05 in Snow Light Snow
11:18 PM 33.1 °F 26.9 °F 32.0 °F 96% 29.70 in 3.0 mi NE 6.9 mph - 0.05 in Snow Light Snow
11:53 PM 34.0 °F 28.8 °F 32.0 °F 92% 29.71 in 9.0 mi ENE 5.8 mph - 0.07 in   Overcast